Simultaneous Nadir Overpasses (SNOs) Predictions

Prediction of SNOs between FY3D and METOP-A Satellite Orbit:

Table of predicted SNOs for the next 14.0 days since TLE Epoch: 9/26/2020
Index Date (FY3D) Time (FY3D) Lat,Lon (FY3D) SZA (FY3D ) Date (METOP-A) Time (METOP-A) Lat,Lon (METOP-A) SZA (METOP-A ) Distance(km) Time Diff (sec)
1 10/01/2020 14:07:52 76.62, -49.09 80.49 10/01/2020 14:08:57 76.62, -45.59 80.29 90.29 65
2 10/01/2020 14:58:34 -76.55, 118.48 99.58 10/01/2020 14:59:41 -76.52, 121.39 99.78 75.20 67
3 10/01/2020 15:49:15 76.35, -73.45 80.19 10/01/2020 15:50:26 76.28, -72.13 80.04 35.70 71
4 10/01/2020 16:39:57 -76.28, 94.11 99.88 10/01/2020 16:41:09 -76.23, 95.02 99.99 24.75 72
5 10/01/2020 17:30:39 76.12, -98.01 79.95 10/01/2020 17:31:51 76.12, -98.00 79.94 0.43 72
6 10/01/2020 18:21:22 -76.10, 69.39 100.06 10/01/2020 18:22:33 -76.12, 69.31 100.06 3.11 71
7 10/01/2020 19:12:08 76.12,-123.37 79.98 10/01/2020 19:13:13 76.10,-123.40 79.95 1.63 65
8 10/01/2020 20:02:51 -76.09, 44.02 100.04 10/01/2020 20:03:55 -76.10, 43.91 100.04 3.12 64
9 10/01/2020 20:53:37 76.11,-148.74 80.00 10/01/2020 20:54:34 76.13,-148.65 80.00 3.06 57
10 10/01/2020 21:44:20 -76.09, 18.66 100.01 10/01/2020 21:45:16 -76.13, 18.66 99.99 3.87 56
11 10/01/2020 22:35:06 76.11,-174.10 80.03 10/01/2020 22:35:56 76.11,-174.05 80.02 1.40 50
12 10/01/2020 23:25:49 -76.09, -6.70 99.99 10/01/2020 23:26:38 -76.11, -6.74 99.98 2.28 49
13 10/02/2020 00:16:35 76.11, 160.53 80.05 10/02/2020 00:17:18 76.10, 160.55 80.03 1.77 43
14 10/02/2020 01:07:18 -76.09, -32.07 99.96 10/02/2020 01:08:00 -76.09, -32.14 99.97 1.94 42
15 10/02/2020 01:58:04 76.11, 135.17 80.08 10/02/2020 01:58:40 76.08, 135.15 80.04 3.59 36
16 10/02/2020 02:48:47 -76.09, -57.43 99.94 10/02/2020 02:49:22 -76.07, -57.54 99.96 3.27 35
17 10/02/2020 03:39:33 76.11, 109.80 80.10 10/02/2020 03:40:01 76.11, 109.90 80.09 2.58 28
18 10/02/2020 04:30:16 -76.09, -82.80 99.92 10/02/2020 04:30:43 -76.10, -82.79 99.91 1.87 27
19 10/02/2020 05:21:02 76.11, 84.44 80.13 10/02/2020 05:21:23 76.09, 84.50 80.10 2.55 21
20 10/02/2020 06:11:45 -76.08,-108.16 99.89 10/02/2020 06:12:05 -76.08,-108.19 99.89 0.76 20
21 10/02/2020 07:02:30 76.06, 59.23 80.10 10/02/2020 07:02:45 76.07, 59.10 80.11 3.85 15
22 10/02/2020 07:53:14 -76.08,-133.53 99.87 10/02/2020 07:53:27 -76.07,-133.59 99.88 2.45 13
23 10/02/2020 08:44:00 76.10, 33.71 80.18 10/02/2020 08:44:06 76.10, 33.85 80.16 3.78 6
24 10/02/2020 09:34:43 -76.08,-158.89 99.84 10/02/2020 09:34:48 -76.09,-158.84 99.83 2.15 5
25 10/02/2020 10:25:28 76.06, 8.50 80.15 10/02/2020 10:25:28 76.08, 8.45 80.18 3.17 0
26 10/02/2020 11:16:12 -76.08, 175.75 99.82 10/02/2020 11:16:10 -76.08, 175.76 99.82 0.44 2
27 10/02/2020 12:06:57 76.05, -16.86 80.17 10/02/2020 12:06:50 76.06, -16.95 80.19 2.64 7
28 10/02/2020 12:57:41 -76.08, 150.38 99.79 10/02/2020 12:57:32 -76.06, 150.36 99.81 2.04 9
29 10/02/2020 13:48:26 76.05, -42.22 80.20 10/02/2020 13:48:12 76.04, -42.35 80.20 3.52 14
30 10/02/2020 14:39:10 -76.07, 125.02 99.77 10/02/2020 14:38:53 -76.09, 125.11 99.76 2.92 17
31 10/02/2020 15:29:54 76.05, -67.59 80.22 10/02/2020 15:29:32 76.07, -67.60 80.25 2.55 22
32 10/02/2020 16:20:38 -76.07, 99.65 99.74 10/02/2020 16:20:14 -76.07, 99.71 99.74 1.63 24
33 10/02/2020 17:11:23 76.05, -92.95 80.25 10/02/2020 17:10:54 76.05, -93.00 80.26 1.44 29
34 10/02/2020 18:02:07 -76.07, 74.29 99.72 10/02/2020 18:01:36 -76.05, 74.31 99.73 2.27 31
35 10/02/2020 18:52:52 76.05,-118.32 80.27 10/02/2020 18:52:16 76.04,-118.40 80.28 2.50 36
36 10/02/2020 19:43:36 -76.07, 48.92 99.69 10/02/2020 19:42:57 -76.08, 49.06 99.68 3.91 39
37 10/02/2020 20:34:21 76.04,-143.68 80.30 10/02/2020 20:33:37 76.07,-143.65 80.33 2.43 44
38 10/02/2020 21:25:05 -76.07, 23.56 99.67 10/02/2020 21:24:19 -76.06, 23.66 99.67 2.83 46
39 10/02/2020 22:15:50 76.04,-169.05 80.32 10/02/2020 22:14:59 76.05,-169.05 80.34 0.43 51
40 10/02/2020 23:06:34 -76.06, -1.80 99.64 10/02/2020 23:05:41 -76.04, -1.74 99.66 3.01 53
41 10/02/2020 23:57:19 76.04, 165.59 80.35 10/02/2020 23:56:21 76.03, 165.55 80.35 1.74 58
42 10/03/2020 00:48:02 -76.02, -27.01 99.67 10/03/2020 00:47:03 -76.03, -27.14 99.64 3.51 59
43 10/03/2020 01:38:48 76.04, 140.22 80.37 10/03/2020 01:37:42 76.06, 140.30 80.40 2.88 66
44 10/03/2020 02:29:32 -76.06, -52.53 99.59 10/03/2020 02:28:24 -76.05, -52.39 99.59 4.02 68
45 10/03/2020 03:20:17 76.04, 114.86 80.40 10/03/2020 03:19:04 76.04, 114.90 80.41 1.14 73
46 10/03/2020 04:11:00 -76.01, -77.74 99.62 10/03/2020 04:09:46 -76.04, -77.79 99.58 2.72 74
47 10/03/2020 05:01:41 75.81, 90.27 80.16 10/03/2020 05:00:30 75.83, 88.89 80.27 37.55 71
48 10/03/2020 05:52:24 -75.78,-102.34 99.86 10/03/2020 05:51:13 -75.78,-103.94 99.76 43.74 71
49 10/03/2020 06:43:04 75.52, 65.80 79.86 10/03/2020 06:41:58 75.53, 62.62 80.06 88.47 66
50 10/03/2020 07:33:46 -75.45,-126.66 100.21 10/03/2020 07:32:41 -75.48,-130.20 99.97 98.81 65
